Погода в Покрове

Россия / Владимирская область     55°54′59″N   39°10′24″E
темп.,
°C
ветер,
м/с
пор.,
м/с
влажн.,
%
обл.,
%
осадки,
мм/ч
давл.,
гПа
погр.,
м
21 января, пт
пт2100:00−7ю51393100 0.1 1004571
03:00−7ю51395100 0.7 1003531
06:00−7ююв41195100 0.9 1002478
09:00−7ююв41195100 1.5 1002488
12:00−7юв51195100 1.0 1002592
15:00−7юв51195100 2.4 1000702
18:00−7юв41195100 1.0 1000644
21:00−7юв41095100 1.4 1000448
22 января, сб
сб2200:00−6юв389698 0.9 1001342
03:00−8юв3997100 1.0 1002285
06:00−8юв41095100 0.1 1004365
09:00−8юв41094100 0.3 1006409
12:00−6юв4895100 0.4 1008443
15:00−6юв3795100 0.8 1010450
18:00−8вюв389697 0.2 1012269
21:00−9вюв259768 0.4 1015123
23 января, вс
вс2300:00−13в119983 0.1 101727
03:00−16в1110079 0.1 10199
06:00−19в11100100 0.0 10229
09:00−19всв1110091 0.1 102514
12:00−11ююв019591 0.1 1027103
15:00−9ююв009658 0.1 102921
18:00−17в1110079 0.0 10339
21:00−19ссв1110098 0.0 10349
24 января, пн
пн2400:00−21св1110096 0.0 10369
03:00−21ссв1110095 0.0 10379
06:00−21св1110090 0.0 103810
09:00−21св22100100 0.0 103831
12:00−10в239581 0.0 1038134
15:00−8в13955 0.0 1036140
18:00−15св239863 0.0 103637
21:00−16в22100100 0.0 103536
25 января, вт
вт2500:00−19вюв11100100 0.0 10349
03:00−21юв11100100 0.1 10339
06:00−22ююв11100100 0.0 103112
09:00−22ю12100100 0.0 102925
12:00−12ююз369595 0.0 1027196
15:00−9ю389578 0.0 1024324
18:00−12ю399772 0.0 1023214
21:00−15ю299873 0.0 1022161